TimeEDT,TemperatureF,Dew PointF,Humidity,Sea Level PressureIn,VisibilityMPH,Wind Direction,Wind SpeedMPH,Gust SpeedMPH,PrecipitationIn,Events,Conditions,WindDirDegrees,DateUTC
12:18 AM,62.6,60.8,94,29.70,9.0,South,10.4,-,0.00,Rain,Light Rain,180,2013-10-18 04:18:00
12:53 AM,63.0,60.1,90,29.69,9.0,South,10.4,-,0.00,Rain,Light Rain,170,2013-10-18 04:53:00
1:53 AM,63.0,61.0,93,29.67,9.0,South,9.2,-,0.00,Rain,Light Rain,180,2013-10-18 05:53:00
2:53 AM,64.0,61.0,90,29.65,10.0,South,8.1,-,0.00,,Overcast,180,2013-10-18 06:53:00
3:43 AM,64.4,60.8,88,29.65,10.0,SSW,5.8,-,N/A,,Mostly Cloudy,200,2013-10-18 07:43:00
3:53 AM,64.0,60.1,87,29.65,10.0,South,5.8,-,N/A,,Mostly Cloudy,190,2013-10-18 07:53:00
4:53 AM,63.0,52.0,67,29.68,10.0,WNW,9.2,21.9,N/A,,Partly Cloudy,290,2013-10-18 08:53:00
5:53 AM,61.0,50.0,67,29.70,10.0,West,12.7,20.7,N/A,,Clear,280,2013-10-18 09:53:00
6:53 AM,59.0,48.9,69,29.73,10.0,WNW,6.9,-,N/A,,Clear,290,2013-10-18 10:53:00
7:53 AM,59.0,48.9,69,29.76,10.0,Variable,4.6,-,N/A,,Clear,0,2013-10-18 11:53:00
8:53 AM,61.0,48.9,64,29.79,10.0,WNW,8.1,-,N/A,,Clear,290,2013-10-18 12:53:00
9:53 AM,63.0,46.9,56,29.81,10.0,NW,12.7,17.3,N/A,,Partly Cloudy,310,2013-10-18 13:53:00
10:53 AM,64.0,45.0,50,29.82,10.0,NNW,8.1,16.1,N/A,,Scattered Clouds,330,2013-10-18 14:53:00
11:53 AM,66.0,43.0,43,29.82,10.0,NW,8.1,-,N/A,,Partly Cloudy,310,2013-10-18 15:53:00
12:53 PM,66.9,44.1,44,29.82,10.0,WNW,9.2,17.3,N/A,,Clear,290,2013-10-18 16:53:00
1:53 PM,68.0,44.1,42,29.81,10.0,West,9.2,21.9,N/A,,Clear,270,2013-10-18 17:53:00
2:53 PM,69.1,42.1,38,29.82,10.0,WNW,12.7,17.3,N/A,,Partly Cloudy,300,2013-10-18 18:53:00
3:53 PM,68.0,41.0,37,29.83,10.0,NW,9.2,-,N/A,,Clear,310,2013-10-18 19:53:00
4:53 PM,66.9,39.9,37,29.83,10.0,NW,6.9,-,N/A,,Clear,310,2013-10-18 20:53:00
5:53 PM,63.0,39.9,43,29.84,10.0,WSW,3.5,-,N/A,,Clear,250,2013-10-18 21:53:00
6:53 PM,54.0,43.0,66,29.87,10.0,Calm,Calm,-,N/A,,Clear,0,2013-10-18 22:53:00
7:53 PM,51.1,43.0,74,29.90,10.0,Calm,Calm,-,N/A,,Clear,0,2013-10-18 23:53:00
8:53 PM,50.0,43.0,77,29.92,10.0,Calm,Calm,-,N/A,,Clear,0,2013-10-19 00:53:00
9:53 PM,48.0,44.1,86,29.94,10.0,Calm,Calm,-,N/A,,Clear,0,2013-10-19 01:53:00
10:53 PM,45.0,42.1,90,29.95,10.0,Calm,Calm,-,N/A,,Clear,0,2013-10-19 02:53:00
11:53 PM,44.1,41.0,89,29.96,10.0,Calm,Calm,-,N/A,,Clear,0,2013-10-19 03:53:00